{"data":{"norad_id":60553,"epoch":"2026-05-25T04:05:40.653024Z","epoch_age_seconds":60601,"freshness":"FRESH","line1":"1 60553U 24149CP  26145.17060941  .00000886  00000+0  83838-4 0  9990","line2":"2 60553  97.6809 220.9851 0008690 154.1509 206.0148 14.96085346 96568","mean_motion":14.96085346,"eccentricity":0.000869,"inclination_deg":97.6809,"raan_deg":220.9851,"arg_perigee_deg":154.1509,"mean_anomaly_deg":206.0148,"bstar":8.3838e-5,"rev_number":9656,"period_min":96.251193412866,"perigee_km":572.96021837815,"apogee_km":585.05173286979,"semimajor_km":6957.142975624,"source":"CELESTRAK","updated_at":"2026-05-25T13:38:02.152961Z"}}